CEB642 RPVP-RPLL

Flight info

Callsign CEB642
Flight time N/A
Altitude 35000
Route DABOY1E DABOY W281 LEGED N884 LUBAN LUBAN3R
Aircraft A339/H-SADE1E2E3GHIJ3J5M1P2RWXY/LB2D1

Departure

Time 2026-04-22 01:34
Airport Puerto Princesa International Airport / PAF Antonio Bautista Air Base (RPVP)

Arrival

Time N/A
Airport Ninoy Aquino International Airport (RPLL)
Time Latitude Longitude Altitude Speed Heading
2026-04-22 01:28 9.74425 118.75004 84 ft 2 kts 315°
2026-04-22 01:28 9.74416 118.75016 84 ft 2 kts 292°
2026-04-22 01:28 9.74413 118.75028 84 ft 0 kts 274°
2026-04-22 01:28 9.74413 118.75034 84 ft 0 kts 272°
2026-04-22 01:31 9.74413 118.75021 84 ft 4 kts 272°
2026-04-22 01:31 9.74415 118.74976 84 ft 8 kts 273°
2026-04-22 01:32 9.74419 118.74899 84 ft 12 kts 272°
2026-04-22 01:32 9.74423 118.74803 84 ft 13 kts 271°
2026-04-22 01:32 9.74404 118.74720 84 ft 11 kts 221°
2026-04-22 01:32 9.74320 118.74705 84 ft 12 kts 182°
2026-04-22 01:33 9.74266 118.74727 84 ft 8 kts 115°
2026-04-22 01:33 9.74258 118.74764 84 ft 0 kts 96°
2026-04-22 01:33 9.74250 118.74873 84 ft 54 kts 91°
2026-04-22 01:34 9.74221 118.75557 84 ft 137 kts 91°
2026-04-22 01:34 9.74161 118.76687 500 ft 169 kts 92°
2026-04-22 01:34 9.74073 118.77846 1387 ft 169 kts 89°
2026-04-22 01:34 9.74416 118.78924 2170 ft 167 kts 52°
2026-04-22 01:35 9.75466 118.79539 2514 ft 191 kts 17°
2026-04-22 01:35 9.76846 118.79807 2946 ft 210 kts 12°
2026-04-22 01:35 9.78334 118.80093 3434 ft 227 kts 14°
2026-04-22 01:35 9.79923 118.80477 3969 ft 242 kts 17°
2026-04-22 01:36 9.81583 118.80938 4727 ft 248 kts 18°
2026-04-22 01:36 9.83220 118.81419 5521 ft 250 kts 19°
2026-04-22 01:36 9.84894 118.81926 6278 ft 254 kts 19°
2026-04-22 01:36 9.86605 118.82451 7029 ft 257 kts 19°
2026-04-22 01:37 9.88321 118.82952 7744 ft 261 kts 14°
2026-04-22 01:37 9.90215 118.83226 8466 ft 267 kts
2026-04-22 01:37 9.92163 118.83236 8896 ft 284 kts 360°
2026-04-22 01:37 9.94170 118.83170 9413 ft 295 kts 359°
2026-04-22 01:38 9.96239 118.83093 10092 ft 299 kts 358°
2026-04-22 01:38 9.98371 118.83019 10622 ft 309 kts 358°
2026-04-22 01:38 10.00583 118.82945 10931 ft 327 kts 358°
2026-04-22 01:38 10.02909 118.82871 11243 ft 344 kts 358°
2026-04-22 01:39 10.05361 118.82796 11805 ft 351 kts 358°
2026-04-22 01:39 10.07796 118.82723 12446 ft 354 kts 358°
2026-04-22 01:39 10.10304 118.82649 13072 ft 358 kts 358°
2026-04-22 01:39 10.12797 118.82574 13697 ft 362 kts 357°
2026-04-22 01:40 10.15314 118.82497 14330 ft 364 kts 357°
2026-04-22 01:40 10.17854 118.82421 14978 ft 367 kts 357°
2026-04-22 01:40 10.20415 118.82344 15622 ft 369 kts 358°
2026-04-22 01:40 10.22994 118.82268 16254 ft 371 kts 358°
2026-04-22 01:41 10.25592 118.82190 16889 ft 373 kts 358°
2026-04-22 01:41 10.28213 118.82111 17524 ft 375 kts 358°
2026-04-22 01:41 10.30808 118.82034 18105 ft 378 kts 358°
2026-04-22 01:41 10.33477 118.81953 18665 ft 383 kts 358°
2026-04-22 01:42 10.36138 118.81873 19203 ft 387 kts 358°
2026-04-22 01:42 10.38845 118.81792 19736 ft 391 kts 358°
2026-04-22 01:42 10.41620 118.81801 20245 ft 395 kts
2026-04-22 01:42 10.44346 118.81956 20755 ft 399 kts
2026-04-22 01:43 10.47145 118.82150 21256 ft 403 kts
2026-04-22 01:43 10.49972 118.82352 21741 ft 407 kts
2026-04-22 01:43 10.52793 118.82554 22208 ft 410 kts
2026-04-22 01:43 10.55654 118.82758 22681 ft 414 kts
2026-04-22 01:44 10.58551 118.82963 23167 ft 417 kts
2026-04-22 01:44 10.61492 118.83170 23682 ft 419 kts
2026-04-22 01:44 10.64381 118.83373 24176 ft 422 kts
2026-04-22 01:44 10.67335 118.83581 24632 ft 425 kts
2026-04-22 01:45 10.70303 118.83790 25097 ft 428 kts
2026-04-22 01:45 10.73357 118.84004 25569 ft 431 kts
2026-04-22 01:45 10.76327 118.84213 26024 ft 433 kts
2026-04-22 01:45 10.79354 118.84426 26471 ft 435 kts
2026-04-22 01:46 10.82377 118.84638 26896 ft 438 kts
2026-04-22 01:46 10.85428 118.84853 27320 ft 440 kts
2026-04-22 01:46 10.88517 118.85069 27728 ft 443 kts
2026-04-22 01:46 10.91619 118.85287 28127 ft 446 kts
2026-04-22 01:47 10.94705 118.85504 28533 ft 449 kts
2026-04-22 01:47 10.97866 118.85726 28959 ft 451 kts
2026-04-22 01:47 11.00993 118.85947 29388 ft 452 kts
2026-04-22 01:47 11.04134 118.86169 29804 ft 454 kts
2026-04-22 01:48 11.07311 118.86391 30210 ft 456 kts
2026-04-22 01:48 11.10475 118.86613 30608 ft 458 kts
2026-04-22 01:48 11.13677 118.86839 30999 ft 460 kts
2026-04-22 01:48 11.16864 118.87064 31380 ft 462 kts
2026-04-22 01:49 11.20102 118.87292 31744 ft 464 kts
2026-04-22 01:49 11.23336 118.87521 32096 ft 467 kts
2026-04-22 01:49 11.26602 118.87752 32520 ft 467 kts
2026-04-22 01:49 11.29825 118.87979 33075 ft 466 kts
2026-04-22 01:50 11.33055 118.88206 33602 ft 465 kts
2026-04-22 01:50 11.36304 118.88433 33993 ft 467 kts
2026-04-22 01:50 11.39574 118.88663 34324 ft 470 kts
2026-04-22 01:50 11.42840 118.88892 34675 ft 472 kts
2026-04-22 01:51 11.46147 118.89125 34896 ft 474 kts
2026-04-22 01:51 11.49458 118.89359 34898 ft 475 kts
2026-04-22 01:51 11.56059 118.89825 34900 ft 475 kts
2026-04-22 01:52 11.62667 118.90292 34902 ft 475 kts
2026-04-22 01:52 11.69275 118.90759 34911 ft 475 kts
2026-04-22 01:53 11.75864 118.91225 34912 ft 475 kts
2026-04-22 01:53 11.82467 118.91692 34916 ft 476 kts
2026-04-22 01:54 11.89088 118.92159 34919 ft 475 kts
2026-04-22 01:54 11.95701 118.92627 34915 ft 475 kts
2026-04-22 01:55 12.02294 118.93095 34909 ft 475 kts
2026-04-22 01:55 12.08897 118.93562 34902 ft 476 kts
2026-04-22 01:56 12.15559 118.94035 34901 ft 475 kts
2026-04-22 01:56 12.22150 118.94504 34901 ft 475 kts
2026-04-22 01:57 12.28735 118.94971 34899 ft 475 kts
2026-04-22 01:57 12.35346 118.95440 34898 ft 474 kts
2026-04-22 01:58 12.41929 118.95906 34898 ft 474 kts
2026-04-22 01:58 12.48519 118.96374 34898 ft 474 kts
2026-04-22 01:59 12.55131 118.96845 34898 ft 474 kts
2026-04-22 01:59 12.61728 118.97315 34898 ft 474 kts
2026-04-22 02:00 12.68287 118.97781 34899 ft 474 kts
2026-04-22 02:00 12.74899 118.98253 34898 ft 474 kts
2026-04-22 02:01 12.81493 118.98721 34899 ft 474 kts
2026-04-22 02:01 12.88049 118.99188 34898 ft 474 kts
2026-04-22 02:02 12.94643 118.99836 34401 ft 474 kts 10°
2026-04-22 02:02 12.97806 119.00714 33898 ft 473 kts 18°
2026-04-22 02:02 13.00845 119.02058 33334 ft 471 kts 26°
2026-04-22 02:03 13.03640 119.03809 32741 ft 471 kts 34°
2026-04-22 02:03 13.06165 119.05939 32161 ft 471 kts 43°
2026-04-22 02:03 13.08367 119.08399 31636 ft 470 kts 50°
2026-04-22 02:03 13.10399 119.11046 31290 ft 465 kts 52°
2026-04-22 02:04 13.14301 119.16258 30532 ft 457 kts 52°
2026-04-22 02:04 13.16249 119.18855 30134 ft 454 kts 52°
2026-04-22 02:04 13.18150 119.21382 29753 ft 451 kts 52°
2026-04-22 02:05 13.20016 119.23856 29381 ft 448 kts 52°
2026-04-22 02:05 13.21909 119.26364 29001 ft 445 kts 52°
2026-04-22 02:05 13.23799 119.28865 28621 ft 441 kts 52°
2026-04-22 02:05 13.25693 119.31370 28229 ft 438 kts 52°
2026-04-22 02:06 13.27555 119.33833 27837 ft 435 kts 52°
2026-04-22 02:06 13.29414 119.36274 27391 ft 433 kts 52°
2026-04-22 02:06 13.31280 119.38705 26867 ft 433 kts 52°
2026-04-22 02:06 13.33122 119.41106 26320 ft 433 kts 52°
2026-04-22 02:07 13.34974 119.43523 25757 ft 433 kts 52°
2026-04-22 02:07 13.36837 119.45960 25187 ft 434 kts 51°
2026-04-22 02:07 13.38707 119.48408 24613 ft 434 kts 51°
2026-04-22 02:07 13.40546 119.50816 24031 ft 431 kts 51°
2026-04-22 02:08 13.42383 119.53224 23491 ft 426 kts 51°
2026-04-22 02:08 13.44214 119.55625 23021 ft 420 kts 51°
2026-04-22 02:08 13.45989 119.57954 22610 ft 415 kts 51°
2026-04-22 02:08 13.47783 119.60307 22195 ft 412 kts 51°
2026-04-22 02:09 13.49542 119.62614 21800 ft 410 kts 51°
2026-04-22 02:09 13.51280 119.64896 21432 ft 407 kts 51°
2026-04-22 02:09 13.53026 119.67188 21087 ft 403 kts 52°
2026-04-22 02:09 13.54744 119.69445 20746 ft 400 kts 51°
2026-04-22 02:10 13.56457 119.71696 20399 ft 396 kts 51°
2026-04-22 02:10 13.58133 119.73898 20075 ft 392 kts 51°
2026-04-22 02:10 13.59811 119.76105 19760 ft 388 kts 51°
2026-04-22 02:10 13.61467 119.78282 19449 ft 383 kts 51°
2026-04-22 02:11 13.63104 119.80435 19137 ft 379 kts 51°
2026-04-22 02:11 13.64708 119.82545 18818 ft 376 kts 51°
2026-04-22 02:11 13.66313 119.84657 18500 ft 372 kts 51°
2026-04-22 02:11 13.67894 119.86738 18171 ft 369 kts 51°
2026-04-22 02:12 13.69480 119.88826 17839 ft 366 kts 51°
2026-04-22 02:12 13.71040 119.90881 17493 ft 364 kts 51°
2026-04-22 02:12 13.72592 119.92924 17141 ft 362 kts 51°
2026-04-22 02:12 13.74126 119.94944 16779 ft 360 kts 51°
2026-04-22 02:13 13.75676 119.96987 16402 ft 359 kts 51°
2026-04-22 02:13 13.77198 119.98993 16036 ft 356 kts 51°
2026-04-22 02:13 13.78709 120.00984 15709 ft 354 kts 51°
2026-04-22 02:13 13.80235 120.02995 15347 ft 352 kts 52°
2026-04-22 02:14 13.81736 120.04974 14998 ft 350 kts 52°
2026-04-22 02:14 13.83219 120.06930 14642 ft 349 kts 52°
2026-04-22 02:14 13.84719 120.08908 14270 ft 347 kts 52°
2026-04-22 02:14 13.86197 120.10860 13902 ft 346 kts 52°
2026-04-22 02:15 13.87679 120.12817 13503 ft 345 kts 52°
2026-04-22 02:15 13.89145 120.14754 13143 ft 344 kts 52°
2026-04-22 02:15 13.90600 120.16676 12775 ft 343 kts 52°
2026-04-22 02:15 13.92061 120.18607 12388 ft 341 kts 52°
2026-04-22 02:16 13.93525 120.20540 12061 ft 338 kts 52°
2026-04-22 02:16 13.94969 120.22448 11739 ft 335 kts 52°
2026-04-22 02:16 13.96385 120.24320 11420 ft 333 kts 52°
2026-04-22 02:16 13.97818 120.26214 11060 ft 330 kts 52°
2026-04-22 02:17 13.99220 120.28068 10732 ft 329 kts 53°
2026-04-22 02:17 14.00616 120.29915 10353 ft 327 kts 53°
2026-04-22 02:17 14.02009 120.31757 10065 ft 323 kts 53°
2026-04-22 02:17 14.03362 120.33548 10021 ft 310 kts 53°
2026-04-22 02:18 14.04658 120.35265 10001 ft 297 kts 53°
2026-04-22 02:18 14.05894 120.36901 9970 ft 285 kts 53°
2026-04-22 02:18 14.07113 120.38518 9728 ft 283 kts 53°
2026-04-22 02:18 14.08319 120.40117 9433 ft 282 kts 53°
2026-04-22 02:19 14.09511 120.41695 9175 ft 281 kts 53°
2026-04-22 02:19 14.10724 120.43304 8906 ft 280 kts 53°
2026-04-22 02:19 14.11917 120.44886 8620 ft 280 kts 53°
2026-04-22 02:19 14.13048 120.46384 8355 ft 278 kts 53°
2026-04-22 02:20 14.14248 120.47974 8056 ft 277 kts 53°
2026-04-22 02:20 14.15384 120.49480 7789 ft 275 kts 53°
2026-04-22 02:20 14.16564 120.51047 7533 ft 274 kts 53°
2026-04-22 02:20 14.17739 120.52605 7260 ft 273 kts 53°
2026-04-22 02:21 14.18914 120.54164 6987 ft 272 kts 54°
2026-04-22 02:21 14.20082 120.55714 6729 ft 271 kts 54°
2026-04-22 02:21 14.21243 120.57258 6445 ft 271 kts 54°
2026-04-22 02:21 14.22425 120.58738 6156 ft 271 kts 48°
2026-04-22 02:22 14.23788 120.60103 5831 ft 268 kts 45°
2026-04-22 02:22 14.25138 120.61398 5558 ft 262 kts 45°
2026-04-22 02:22 14.26434 120.62658 5285 ft 256 kts 46°
2026-04-22 02:22 14.27715 120.63925 5021 ft 251 kts 46°
2026-04-22 02:23 14.28973 120.65115 4872 ft 241 kts 43°
2026-04-22 02:23 14.30243 120.66228 4701 ft 235 kts 43°
2026-04-22 02:23 14.31416 120.67395 4487 ft 232 kts 52°
2026-04-22 02:23 14.32360 120.68722 4255 ft 224 kts 59°
2026-04-22 02:24 14.33158 120.70055 4044 ft 217 kts 62°
2026-04-22 02:24 14.33916 120.71390 3818 ft 211 kts 62°
2026-04-22 02:24 14.34643 120.72690 3625 ft 205 kts 62°
2026-04-22 02:24 14.35339 120.73946 3418 ft 200 kts 63°
2026-04-22 02:25 14.36020 120.75177 3220 ft 195 kts 62°
2026-04-22 02:25 14.36683 120.76378 3039 ft 189 kts 62°
2026-04-22 02:25 14.37326 120.77541 2980 ft 177 kts 63°
2026-04-22 02:25 14.37911 120.78598 2985 ft 163 kts 63°
2026-04-22 02:26 14.38483 120.79636 2994 ft 167 kts 63°
2026-04-22 02:26 14.39061 120.80682 2985 ft 168 kts 63°
2026-04-22 02:26 14.39642 120.81735 2981 ft 168 kts 63°
2026-04-22 02:26 14.40225 120.82789 2925 ft 167 kts 63°
2026-04-22 02:27 14.40798 120.83822 2914 ft 167 kts 63°
2026-04-22 02:27 14.41381 120.84874 2908 ft 168 kts 63°
2026-04-22 02:27 14.41966 120.85928 2901 ft 168 kts 63°
2026-04-22 02:27 14.42561 120.87002 2766 ft 169 kts 63°
2026-04-22 02:28 14.43136 120.88037 2567 ft 167 kts 63°
2026-04-22 02:28 14.43709 120.89068 2348 ft 160 kts 63°
2026-04-22 02:28 14.44247 120.90037 2146 ft 153 kts 63°
2026-04-22 02:28 14.44770 120.90978 1953 ft 146 kts 63°
2026-04-22 02:29 14.45264 120.91868 1776 ft 140 kts 64°
2026-04-22 02:29 14.45751 120.92746 1614 ft 141 kts 63°
2026-04-22 02:29 14.46241 120.93630 1448 ft 141 kts 64°
2026-04-22 02:29 14.46731 120.94515 1271 ft 140 kts 62°
2026-04-22 02:30 14.47220 120.95394 1090 ft 140 kts 62°
2026-04-22 02:30 14.47724 120.96263 912 ft 140 kts 61°
2026-04-22 02:30 14.48214 120.97137 728 ft 140 kts 64°
2026-04-22 02:30 14.48691 120.98019 554 ft 140 kts 64°
2026-04-22 02:31 14.49178 120.98885 401 ft 140 kts 63°
2026-04-22 02:31 14.49726 120.99824 701 ft 162 kts 61°
2026-04-22 02:31 14.50320 121.00805 1530 ft 167 kts 61°
2026-04-22 02:31 14.50903 121.01833 2226 ft 170 kts 64°
2026-04-22 02:32 14.51486 121.02965 2669 ft 185 kts 64°
2026-04-22 02:32 14.52099 121.04187 3096 ft 202 kts 64°
2026-04-22 02:32 14.52756 121.05511 3695 ft 211 kts 68°
2026-04-22 02:32 14.52988 121.06979 4412 ft 213 kts 99°
2026-04-22 02:33 14.52393 121.08385 5162 ft 217 kts 122°
2026-04-22 02:33 14.51492 121.09637 5680 ft 220 kts 126°
2026-04-22 02:33 14.50517 121.10880 5949 ft 221 kts 127°
2026-04-22 02:33 14.49535 121.12113 5977 ft 221 kts 127°
2026-04-22 02:34 14.48545 121.13351 5979 ft 221 kts 127°
2026-04-22 02:34 14.47509 121.14523 5964 ft 222 kts 142°
2026-04-22 02:34 14.46013 121.15108 5965 ft 229 kts 175°
2026-04-22 02:34 14.44447 121.14755 5986 ft 236 kts 207°
2026-04-22 02:35 14.43215 121.13580 5987 ft 241 kts 231°
2026-04-22 02:35 14.42280 121.12160 5976 ft 241 kts 236°
2026-04-22 02:35 14.41388 121.10675 5982 ft 241 kts 236°
2026-04-22 02:35 14.40479 121.09199 5997 ft 241 kts 235°
2026-04-22 02:36 14.39567 121.07755 5990 ft 241 kts 235°
2026-04-22 02:36 14.38654 121.06310 5893 ft 238 kts 235°
2026-04-22 02:36 14.37740 121.04858 5686 ft 239 kts 235°
2026-04-22 02:36 14.36838 121.03419 5483 ft 239 kts 236°
2026-04-22 02:37 14.35941 121.01987 5296 ft 238 kts 236°
2026-04-22 02:37 14.35041 121.00545 5123 ft 237 kts 235°
2026-04-22 02:37 14.34140 120.99103 4999 ft 234 kts 236°
2026-04-22 02:37 14.33254 120.97684 4990 ft 237 kts 235°
2026-04-22 02:38 14.32352 120.96242 4991 ft 237 kts 236°
2026-04-22 02:38 14.31449 120.94795 4987 ft 238 kts 236°
2026-04-22 02:38 14.30543 120.93346 4997 ft 238 kts 235°
2026-04-22 02:38 14.29676 120.91891 4993 ft 239 kts 245°
2026-04-22 02:39 14.29457 120.90232 4807 ft 237 kts 285°
2026-04-22 02:39 14.30281 120.88814 4498 ft 232 kts 324°
2026-04-22 02:39 14.31619 120.87869 4218 ft 230 kts 330°
2026-04-22 02:39 14.32963 120.86960 3943 ft 231 kts 328°
2026-04-22 02:40 14.34274 120.85986 3687 ft 230 kts 326°
2026-04-22 02:40 14.35554 120.84964 3426 ft 230 kts 324°
2026-04-22 02:40 14.36802 120.83926 3167 ft 230 kts 323°
2026-04-22 02:40 14.38111 120.82978 2900 ft 225 kts 345°
2026-04-22 02:41 14.39586 120.82918 2775 ft 206 kts 24°
2026-04-22 02:41 14.40715 120.83672 2722 ft 186 kts 55°
2026-04-22 02:41 14.41372 120.84750 2715 ft 169 kts 64°
2026-04-22 02:41 14.41907 120.85757 2684 ft 150 kts 64°
2026-04-22 02:42 14.42370 120.86620 2647 ft 143 kts 64°
2026-04-22 02:42 14.42855 120.87515 2629 ft 143 kts 64°
2026-04-22 02:42 14.43347 120.88412 2487 ft 143 kts 63°
2026-04-22 02:42 14.43836 120.89295 2303 ft 142 kts 63°
2026-04-22 02:43 14.44330 120.90189 2122 ft 141 kts 63°
2026-04-22 02:43 14.44814 120.91061 1947 ft 141 kts 63°
2026-04-22 02:43 14.45306 120.91947 1771 ft 141 kts 63°
2026-04-22 02:43 14.45794 120.92825 1596 ft 141 kts 63°
2026-04-22 02:44 14.46278 120.93696 1425 ft 140 kts 63°
2026-04-22 02:44 14.46774 120.94589 1254 ft 140 kts 62°
2026-04-22 02:44 14.47263 120.95460 1088 ft 140 kts 62°
2026-04-22 02:44 14.47742 120.96336 920 ft 140 kts 62°
2026-04-22 02:45 14.48237 120.97207 702 ft 140 kts 63°
2026-04-22 02:45 14.48714 120.98083 525 ft 139 kts 64°
2026-04-22 02:45 14.49190 120.98955 362 ft 139 kts 62°
2026-04-22 02:45 14.49686 120.99822 170 ft 141 kts 64°
2026-04-22 02:46 14.50135 121.00644 92 ft 136 kts 62°
2026-04-22 02:46 14.50548 121.01388 90 ft 93 kts 60°